CZ-6A DEB, 56590

Orbit data source: Space-Track

CZ-6A DEB, 56590 is space debris in SSO originally from a launch on Fri, 11 Nov 2022 UTC launched from the Taiyaun Space Center, China (TSC). Debris objects in space refer to the collection of defunct objects orbiting the Earth. Examples of debris include non-operational satellites, rocket bodies, and fragments generated from explosions, collisions, or faulty payload assembly.

Loading next visibility...
Identifier
56590, 2022-151ADN
Orbit
SSO
Country
Flag of CNCN / PRC
Related business
Manufacturer
SAST
Mission
Spacecraft
Bus & Motor
Unknown
Mass
Unknown
Launch date (UTC)
2022-11-11 (3 years ago)
Launch vehicle
Unknown
Launch site
Taiyaun Space Center, China (TSC)
Object type
Payload
Rocket body
Debris
Shape & HBR
Unknown shape, 0.1 m
Radar Cross Section
Small (<0.1 m²)

Expand to show TLE details & history
Last TLE update: 2 days ago

TLE from 2 days ago
0 CZ-6A DEB
1 56590U 22151ADN 25352.26562200  .00001604  00000-0  63484-3 0  9995
2 56590  98.6880   5.7945 0038237 257.2146 102.4761 14.29923238138103
Epoch: 2025-12-18T06:22Z
TLE epoch observation values (Epoch: 2025-12-18T06:22:29.740Z)
Latitude
-0.00012°
Longitude
-176.953°
Altitude
800.94 km
Speed
7.45 km/s
True Right ascension
00h 23m 10s
True Declination
0° 00' 00"
Sunlit
Object was in daylight at epoch
Visualization orbit readout
Latitude
Unknown
Longitude
Unknown
Altitude
Unknown
Speed
Unknown
Apparent Right ascension
Unknown
Apparent Declination
Unknown
Sunlit
N/A
Visualization observer readout
Local Sidereal Time
12:21:19
Azimuth
Unknown
Elevation
Unknown
Doppler factor
Unknown
Orbital elements
Apogee altitude
816.537 km
Perigee altitude
761.726 km
Semi-major axis
7,167.269 km
Eccentricity
0.00382
Inclination
98.688°
RAAN
5.7945°
Arg. of periapsis
257.2146°
True anomaly
102.90347°
Mean anomaly
102.4761°
Eccentric anomaly
102.68983°
Mean motion
3.57695 °/min
Orbital period
100.64 mins
BSTAR
0.00063484
Loading maneuver chart data...
Computing Atmospheric mass density...

Documentation

Showing up to 5 results
|